Location: Newark
(40.3820°N, 3.6624°W)
Time: 07:54:16
(UTC+00:00)

Hubble Space Telescope - Visible Passes

Search period start: 20 November 2019 00:00
Search period end: 30 November 2019 00:00
Orbit: 536 x 540 km, 28.5° (Epoch: 19 November)

Date Brightness Start Highest point End Pass type
(mag) Time Alt. Az. Time Alt. Az. Time Alt. Az.
20 Nov 3.6 19:33:41 10° SSW 19:34:03 11° SSW 19:34:03 11° SSW visible
21 Nov 3.3 17:43:48 10° S 17:44:59 11° SSE 17:46:11 10° SSE visible
21 Nov 3.4 19:22:55 10° SW 19:24:04 14° SSW 19:24:04 14° SSW visible
22 Nov 3.3 17:32:31 10° SSW 17:34:16 12° SSE 17:36:00 10° SE visible
22 Nov 3.2 19:12:13 10° SW 19:14:06 15° SSW 19:14:06 15° SSW visible
23 Nov 3.2 17:21:28 10° SSW 17:23:32 14° S 17:25:37 10° SE visible
23 Nov 3.1 19:01:35 10° SW 19:04:00 15° S 19:04:09 15° S visible
24 Nov 3.1 18:51:01 10° SW 18:53:16 14° S 18:54:15 13° S visible
25 Nov 3.3 18:40:31 10° SW 18:42:33 13° S 18:44:24 10° SSE visible
26 Nov 3.4 18:30:09 10° SW 18:31:50 12° SSW 18:33:30 10° SSE visible
27 Nov 3.6 18:20:03 10° SSW 18:21:06 11° SSW 18:22:08 10° S visible
